sat.trackr.live / text

‹ back to catalog

STARLINK-3679

NORAD 51973 · 2022-025T

PAYLOAD ACTIVE UNKNOWN

§ Identity

Operator
Country
US
Launch date
2022-03-09
Launch site
AFETR
Launch vehicle
Mass (kg)
RCS (m²)

Purposes: comms

External: N2YO · Heavens-Above · Gunter

§ Orbital elements

Epoch: 2026-09-20T03:07:01.848864Z

Period
94.01 min
Inclination
53.1600°
Eccentricity
0.0001337
Mean motion
15.31704555 rev/d
Perigee alt
469.8 km
Apogee alt
471.6 km
Semi-major
6,848.9 km
B*
-1.9974e-5
RAAN
212.0720°
Arg perigee
108.2604°
Mean anomaly
251.8543°
Rev number
25,062

§ Raw data

STARLINK-36791 51973U 22025T   26263.12988251 -.00000985  00000+0 -19974-4 0  99982 51973  53.1600 212.0720 0001337 108.2604 251.8543 15.31704555250620

JSON: /api/v1/satellites/51973 · /tle

For live sub-satellite position, see the globe view (requires WebGL).

§ Visibility from observer

Set your observer location to see the next 7 days of passes ≥ 10°. The values pass through the URL so the page stays shareable.

No JS? Fill the form by hand. The geolocation button needs JavaScript.